Wind_Speed
59 61 63 61 62 61 59 58 59 62 65 65 65 66 64 64 66 65 57 47 40 41 40 45 40 39 42 40 47 45 45 44 47 42 38 37 43 42 36 32 31 31 20
61 63 66 69 70 69 67 66 66 68 70 72 72 73 75 71 66 68 58 48 37 35 27 36 46 44 42 41 48 48 46 46 51 45 45 42 42 40 39 34 30 28 24
66 69 71 74 76 77 76 75 76 77 76 77 77 77 78 74 70 66 59 50 34 37 43 41 41 46 42 45 49 49 45 46 50 49 46 45 41 33 30 36 40 34 34
71 75 79 82 83 83 83 84 85 84 84 84 82 80 78 73 68 63 53 45 42 38 50 47 45 45 42 46 52 50 48 47 48 46 48 45 34 24 39 37 38 39 40
78 84 85 87 88 88 89 91 92 92 91 89 86 84 75 67 63 59 49 43 41 37 44 54 45 48 45 50 53 51 52 50 47 44 50 50 49 42 39 41 47 51 46
93 94 95 94 95 97 99 99 99 99 98 92 89 83 76 64 60 54 49 44 41 41 38 50 45 51 50 54 55 54 54 56 50 50 49 55 60 55 47 49 46 50 51
101 100 100 101 103 104 106 106 106 104 100 94 87 79 72 63 55 51 51 45 41 43 44 47 52 54 57 56 57 57 58 58 57 54 55 56 59 53 61 54 46 52 51
105 104 106 108 110 111 113 112 108 103 93 88 82 74 68 60 53 48 47 45 43 44 47 47 47 54 58 61 58 59 59 61 67 63 57 60 64 63 56 51 51 53 54
109 111 112 114 115 114 112 106 96 88 82 76 78 73 64 56 49 48 45 46 46 48 50 51 51 46 55 63 66 62 64 60 66 69 65 65 66 69 68 63 66 63 62
109 112 113 114 111 101 93 87 82 77 76 72 73 68 58 51 48 50 47 50 51 51 53 58 56 53 48 60 70 67 65 64 62 64 64 65 65 71 69 63 63 62 62
108 112 112 103 94 86 81 78 75 71 69 66 60 52 47 46 48 49 50 49 47 49 49 54 58 57 55 52 56 72 69 70 68 66 67 68 64 64 62 63 60 62 65
113 108 97 88 80 78 75 71 67 61 58 55 51 45 44 46 48 48 49 47 47 48 51 51 51 52 53 52 51 58 71 72 79 78 72 65 66 65 65 64 65 67 69
102 94 86 81 77 73 67 61 54 50 48 45 43 41 40 44 47 45 47 43 53 49 49 51 50 48 47 50 50 52 59 64 74 80 83 82 74 67 66 66 69 69 70
92 84 81 77 71 64 60 54 47 44 43 41 38 38 40 43 46 46 49 50 53 52 53 56 56 57 52 53 55 55 56 60 63 75 80 84 84 73 70 70 72 70 70
82 78 73 66 61 56 53 50 45 42 41 40 40 39 40 43 45 47 50 53 54 52 53 53 56 59 61 58 51 59 56 59 61 67 70 78 83 84 83 82 80 80 76
74 67 57 52 50 46 45 42 43 40 40 42 42 42 45 47 46 49 52 54 52 53 56 58 60 60 48 41 48 53 55 56 60 57 67 71 70 75 81 83 82 83 75
65 57 50 45 41 41 41 39 39 40 44 44 44 45 47 48 49 52 52 50 52 58 61 61 57 48 52 46 52 55 51 57 57 57 52 61 70 71 70 72 71 71 69
60 52 47 44 41 41 41 41 43 44 45 45 45 46 48 51 52 52 49 48 55 57 54 47 43 45 54 50 53 51 48 52 56 55 51 52 57 64 70 71 68 69 72
48 48 46 44 44 44 44 45 47 49 50 50 51 51 53 54 51 46 44 46 52 46 39 34 36 42 47 52 54 51 47 48 54 52 49 50 52 54 55 61 56 59 65
43 40 41 40 42 43 45 45 45 44 47 47 49 51 51 50 51 47 45 47 46 36 36 29 27 30 33 35 40 44 47 49 46 43 48 50 52 56 57 57 59 63 65
49 48 44 48 49 47 47 47 51 53 55 57 58 59 59 56 55 54 50 47 44 36 39 38 33 38 38 41 46 50 51 45 52 51 53 54 55 58 63 65 67 67 71
49 49 49 50 49 52 58 64 65 62 60 57 57 58 58 57 59 60 55 49 43 37 39 41 39 44 43 41 50 51 53 55 54 56 59 56 55 58 63 65 67 70 73
53 53 52 54 59 61 58 57 58 58 51 47 41 38 36 37 40 41 42 42 41 39 43 45 46 47 50 50 52 53 54 56 56 55 61 64 65 66 68 71 72 75 80
53 52 52 56 58 59 58 57 54 45 41 29 20 19 19 23 28 32 39 43 37 37 43 45 47 49 53 54 56 54 54 56 57 58 61 63 66 68 72 76 79 81 83
50 50 52 55 55 56 55 47 36 26 20 16 15 14 18 26 27 30 41 42 39 37 38 44 48 50 51 57 60 62 63 63 64 64 66 68 69 72 74 75 77 81 89
47 49 50 53 53 54 41 28 22 19 14 16 17 13 16 26 29 33 40 43 44 43 44 46 48 50 53 55 57 60 63 64 65 64 66 71 77 80 79 84 90 94 95
Wind_Direction
301 305 306 308 309 308 307 307 308 310 311 312 313 315 316 317 319 323 325 320 295 273 264 262 254 242 240 239 230 228 229 229 234 238 220 237 232 233 238 242 239 230 256
299 301 304 306 307 307 306 306 307 307 308 311 314 313 314 315 317 318 321 319 303 269 261 266 261 243 241 239 231 231 230 227 224 232 230 235 235 240 235 224 214 235 252
298 302 303 304 305 306 306 305 306 307 310 310 310 309 310 311 313 314 317 314 296 251 234 248 252 248 244 236 228 229 227 226 223 225 226 228 231 241 241 229 238 241 244
297 300 302 303 304 303 304 304 305 306 306 306 307 306 307 307 308 310 313 309 296 261 237 246 252 244 242 234 226 225 226 224 222 219 218 216 210 237 243 232 238 240 239
296 299 300 301 301 301 301 302 303 303 304 303 303 302 301 302 303 307 306 301 291 270 248 243 249 242 234 226 225 227 225 225 220 218 218 212 202 220 219 232 239 241 248
296 300 300 300 301 301 301 301 302 301 300 299 298 298 299 297 297 299 297 292 281 268 263 247 246 235 233 229 227 228 226 225 223 220 215 215 212 216 224 230 230 240 242
297 298 300 300 299 300 300 299 298 298 298 296 294 294 294 293 291 293 290 286 275 267 259 259 248 236 234 234 232 230 230 225 219 222 220 217 216 224 224 229 239 244 241
294 296 298 298 298 298 298 296 296 295 292 292 292 292 290 287 283 284 281 279 270 265 260 253 254 238 235 231 235 231 228 226 219 220 224 224 220 220 224 235 242 244 246
294 296 296 296 297 296 296 295 292 292 292 290 289 289 285 276 272 272 272 269 273 268 259 256 254 253 243 235 232 235 231 230 228 228 228 225 229 233 236 241 244 251 254
295 295 296 296 296 295 293 291 290 291 290 290 285 284 276 266 264 264 266 265 271 270 262 257 258 257 248 244 237 234 238 233 233 233 232 231 233 234 239 243 248 249 252
297 299 299 298 295 293 291 291 291 291 291 288 282 275 266 259 258 259 262 265 270 276 269 259 258 257 253 248 246 236 235 233 234 235 235 237 237 237 238 242 243 249 250
299 300 299 296 294 293 293 293 292 289 286 282 276 267 259 256 256 252 258 267 272 275 269 261 257 255 256 251 243 246 235 235 233 239 238 236 239 236 239 242 249 250 254
299 300 298 295 293 293 292 292 287 284 284 281 272 264 258 255 254 254 261 269 278 278 267 258 256 254 259 261 254 240 242 235 233 233 238 242 244 236 240 244 245 249 252
298 298 297 295 293 291 290 293 287 286 285 280 272 264 260 254 251 256 264 269 274 272 261 253 257 256 259 265 264 245 243 236 236 234 237 239 241 241 243 245 249 250 254
299 298 296 293 292 288 289 289 283 281 279 274 269 264 259 257 257 261 268 275 276 266 261 258 261 259 264 266 259 246 246 238 238 236 237 235 237 238 240 244 247 248 252
297 298 295 292 291 289 286 279 277 274 272 267 263 262 262 263 263 269 274 275 269 268 268 269 270 267 250 253 260 254 243 239 237 241 243 234 234 238 240 242 245 248 249
295 294 291 290 292 289 284 280 277 272 266 264 262 262 264 264 266 270 273 270 271 270 272 273 263 254 234 246 248 251 252 239 233 240 243 243 238 241 245 245 245 245 250
294 293 289 289 288 283 281 279 276 273 272 272 270 265 265 266 267 270 266 268 272 277 273 266 253 245 240 243 248 252 246 229 230 239 240 243 243 246 244 247 251 254 256
296 294 290 289 289 286 282 278 276 276 276 276 275 272 270 268 268 265 263 272 278 278 265 249 247 249 246 248 248 242 226 225 231 234 234 238 239 241 242 244 250 255 258
292 297 297 296 292 289 286 285 283 281 279 276 275 272 270 267 266 262 267 273 272 265 250 234 242 234 231 232 229 219 216 218 224 241 242 246 245 247 248 254 257 260 265
288 291 293 295 294 294 292 289 287 283 279 276 272 269 265 263 262 261 263 266 259 252 241 237 242 232 226 225 222 225 220 233 234 241 243 247 253 257 258 259 262 265 266
290 291 291 293 294 293 294 295 294 291 287 283 277 272 268 263 260 260 261 255 242 239 234 238 243 230 233 235 227 228 234 238 243 241 244 251 252 254 259 263 266 268 270
290 291 294 296 295 298 301 303 304 302 301 296 288 280 269 255 248 247 241 229 230 231 226 232 238 235 234 239 237 238 242 244 247 252 254 258 261 263 268 272 274 274 274
288 291 293 296 302 304 306 307 306 304 303 300 297 280 259 228 227 235 219 219 226 228 226 233 236 242 241 241 241 246 251 253 256 258 261 265 268 269 270 273 275 275 276
290 293 294 297 300 304 308 308 308 307 306 306 299 284 252 220 222 226 216 219 225 231 234 234 237 243 245 246 249 251 254 257 262 265 267 268 270 271 272 273 274 275 279
288 291 295 300 304 307 308 306 304 302 296 295 292 285 268 230 225 229 226 228 231 235 237 240 243 244 246 250 252 254 257 259 261 264 266 268 269 270 272 275 276 279 282
Height
10973 10971 10969 10970 10968 10966 10963 10959 10955 10952 10946 10944 10939 10935 10935 10929 10917 10915 10910 10905 10901 10896 10899 10898 10901 10902 10901 10902 10906 10909 10911 10915 10916 10921 10926 10926 10930 10936 10938 10942 10943 10947 10947
10962 10960 10957 10954 10953 10950 10947 10944 10940 10937 10933 10927 10921 10917 10912 10910 10907 10901 10898 10895 10890 10885 10890 10887 10887 10888 10889 10891 10895 10898 10901 10905 10905 10908 10916 10918 10921 10926 10932 10935 10937 10938 10940
10947 10944 10942 10938 10936 10932 10928 10927 10924 10918 10913 10910 10906 10901 10895 10891 10889 10886 10881 10876 10876 10875 10872 10871 10873 10875 10875 10877 10882 10886 10891 10893 10896 10898 10904 10909 10915 10920 10924 10927 10929 10931 10932
10931 10929 10924 10920 10918 10915 10910 10907 10904 10901 10897 10893 10889 10883 10879 10873 10870 10867 10863 10859 10856 10858 10860 10862 10863 10863 10863 10866 10870 10875 10880 10882 10884 10888 10895 10899 10908 10913 10911 10914 10916 10917 10919
10915 10912 10909 10905 10901 10898 10895 10890 10887 10883 10877 10872 10869 10864 10860 10856 10851 10848 10845 10843 10841 10841 10844 10848 10850 10851 10851 10853 10858 10864 10868 10872 10874 10878 10882 10886 10890 10894 10894 10899 10901 10903 10907
10897 10891 10887 10883 10879 10875 10872 10867 10861 10857 10854 10851 10846 10842 10840 10838 10833 10832 10829 10827 10825 10826 10828 10831 10837 10838 10841 10843 10846 10850 10854 10858 10862 10866 10870 10873 10874 10878 10884 10883 10885 10886 10890
10876 10871 10866 10861 10857 10852 10847 10842 10837 10833 10826 10820 10821 10818 10816 10816 10813 10814 10810 10810 10812 10812 10814 10815 10819 10823 10826 10828 10833 10837 10841 10846 10849 10852 10856 10860 10865 10868 10870 10871 10872 10875 10878
10857 10852 10845 10840 10833 10827 10821 10815 10809 10804 10802 10797 10791 10794 10793 10792 10792 10796 10794 10796 10798 10797 10797 10799 10800 10806 10810 10814 10818 10823 10827 10832 10837 10840 10843 10847 10850 10854 10857 10859 10862 10864 10866
10834 10828 10823 10816 10810 10801 10794 10786 10780 10778 10774 10774 10767 10766 10771 10770 10771 10777 10779 10781 10780 10780 10781 10781 10785 10789 10793 10797 10802 10808 10812 10817 10822 10825 10828 10831 10833 10836 10841 10846 10849 10850 10851
10809 10803 10796 10788 10780 10773 10766 10760 10755 10753 10750 10748 10745 10741 10746 10748 10753 10757 10760 10762 10762 10762 10762 10764 10766 10771 10776 10779 10783 10791 10798 10801 10806 10809 10811 10815 10817 10821 10827 10829 10831 10831 10833
10783 10775 10767 10758 10751 10746 10740 10737 10734 10730 10725 10721 10721 10722 10725 10728 10732 10736 10741 10744 10746 10745 10745 10745 10746 10752 10756 10760 10763 10770 10779 10783 10788 10792 10795 10797 10801 10807 10812 10812 10816 10817 10816
10758 10749 10739 10730 10726 10722 10718 10714 10712 10708 10706 10703 10703 10705 10707 10710 10714 10720 10726 10728 10729 10728 10725 10726 10730 10734 10737 10741 10745 10748 10757 10760 10767 10772 10776 10779 10786 10791 10793 10796 10801 10802 10800
10734 10725 10715 10708 10703 10700 10697 10695 10693 10689 10688 10688 10688 10689 10692 10695 10699 10705 10709 10713 10711 10710 10708 10710 10713 10716 10718 10723 10728 10732 10733 10738 10746 10750 10754 10762 10767 10772 10778 10780 10781 10783 10785
10713 10706 10694 10686 10683 10681 10677 10676 10674 10673 10672 10672 10673 10675 10678 10681 10684 10688 10690 10693 10693 10693 10691 10692 10696 10699 10700 10704 10708 10710 10714 10719 10723 10726 10736 10742 10749 10754 10760 10762 10764 10764 10767
10693 10685 10676 10668 10664 10662 10660 10659 10659 10658 10658 10659 10659 10660 10663 10666 10669 10671 10673 10673 10672 10671 10670 10675 10676 10680 10682 10683 10683 10688 10695 10699 10703 10709 10713 10720 10729 10730 10731 10736 10741 10744 10747
10676 10668 10661 10654 10650 10647 10646 10645 10644 10644 10645 10646 10646 10646 10647 10650 10653 10654 10654 10654 10653 10652 10652 10654 10655 10657 10660 10662 10667 10668 10675 10681 10687 10691 10694 10704 10706 10709 10711 10717 10723 10726 10726
10660 10653 10647 10642 10640 10636 10633 10633 10631 10630 10631 10631 10632 10633 10634 10634 10637 10637 10637 10635 10634 10633 10632 10632 10632 10634 10637 10643 10649 10653 10658 10663 10670 10678 10681 10685 10688 10692 10698 10702 10707 10708 10706
10641 10638 10634 10630 10629 10625 10623 10620 10618 10617 10617 10617 10617 10617 10617 10618 10618 10619 10618 10618 10616 10614 10610 10610 10613 10616 10622 10627 10632 10636 10642 10648 10657 10662 10666 10668 10672 10678 10683 10686 10689 10690 10690
10629 10621 10619 10617 10614 10611 10610 10609 10606 10605 10603 10602 10600 10600 10599 10599 10599 10601 10602 10602 10598 10595 10593 10598 10601 10602 10606 10609 10614 10620 10628 10636 10641 10646 10650 10653 10657 10661 10664 10666 10668 10669 10669
10618 10614 10606 10605 10601 10598 10595 10593 10591 10590 10588 10585 10584 10582 10581 10581 10581 10583 10586 10584 10583 10584 10585 10587 10590 10593 10596 10599 10604 10611 10615 10621 10628 10632 10634 10638 10641 10644 10645 10646 10648 10650 10650
10604 10600 10599 10593 10587 10584 10580 10578 10574 10572 10570 10566 10564 10562 10562 10562 10563 10566 10570 10570 10570 10573 10575 10578 10581 10585 10588 10591 10595 10602 10606 10610 10613 10616 10618 10621 10625 10628 10629 10629 10630 10630 10629
10590 10585 10583 10579 10577 10571 10564 10557 10551 10544 10540 10538 10534 10531 10532 10537 10541 10544 10549 10553 10557 10560 10565 10569 10573 10578 10581 10584 10589 10591 10593 10596 10599 10602 10604 10606 10609 10610 10610 10610 10611 10611 10608
10577 10571 10568 10564 10558 10554 10547 10540 10532 10523 10519 10512 10509 10507 10509 10514 10520 10526 10530 10537 10543 10548 10553 10558 10563 10567 10570 10574 10576 10579 10582 10585 10587 10588 10590 10591 10592 10592 10591 10590 10590 10588 10584
10562 10559 10554 10548 10543 10537 10531 10524 10516 10509 10503 10501 10499 10498 10499 10502 10509 10514 10520 10526 10532 10536 10541 10545 10549 10553 10557 10560 10565 10567 10569 10571 10572 10572 10573 10574 10574 10571 10569 10568 10566 10563 10560
10547 10545 10540 10536 10531 10525 10519 10511 10506 10502 10499 10497 10496 10496 10497 10499 10503 10507 10512 10518 10524 10528 10530 10533 10537 10540 10543 10547 10550 10551 10553 10554 10555 10554 10553 10551 10550 10549 10547 10543 10540 10537 10534
10534 10531 10528 10523 10518 10512 10507 10503 10500 10498 10496 10495 10495 10494 10494 10496 10499 10502 10505 10509 10514 10517 10521 10523 10526 10528 10531 10532 10533 10533 10534 10534 10534 10534 10532 10529 10527 10525 10522 10518 10515 10511 10505